This is the latest recevied weather packets stored in our database for station/object KD2DXJ. If no packets are shown the sender has not sent any weather packets the latest 10 day(s).
| Time | Temp. | Humidity | Pressure | Rain* | Wind** | Luminosity | Snow |
|---|---|---|---|---|---|---|---|
| 1778150246 | 2.78° C | 83% | 1009.6 hPa | 0 mm | - | 39 W/m² | - |
| 1778149943 | 2.22° C | 83% | 1009.9 hPa | 0 mm | - | 33 W/m² | - |
| 1778149639 | 2.22° C | 84% | 1009.7 hPa | 0 mm | - | 28 W/m² | - |
| 1778149336 | 2.22° C | 85% | 1009.7 hPa | 0 mm | - | 23 W/m² | - |
| 1778149032 | 2.22° C | 85% | 1009.7 hPa | 0 mm | - | 18 W/m² | - |
| 1778148727 | 1.67° C | 85% | 1009.7 hPa | 0 mm | - | 15 W/m² | - |
| 1778148425 | 1.67° C | 85% | 1009.7 hPa | 0 mm | - | 11 W/m² | - |
| 1778148123 | 1.67° C | 84% | 1009.6 hPa | 0 mm | - | 8 W/m² | - |
| 1778147821 | 2.22° C | 83% | 1009.5 hPa | 0 mm | - | 6 W/m² | - |
| 1778147517 | 2.22° C | 83% | 1009.7 hPa | 0 mm | - | 4 W/m² | - |
| 1778147214 | 2.22° C | 82% | 1009.7 hPa | 0 mm | - | 2 W/m² | - |
| 1778146910 | 2.22° C | 82% | 1009.7 hPa | 0 mm | - | 1 W/m² | - |
| 1778146608 | 2.22° C | 83% | 1009.5 hPa | 0 mm | - | 1 W/m² | - |
| 1778146307 | 2.22° C | 83% | 1009.6 hPa | 0 mm | - | 0 W/m² | - |
| 1778146003 | 2.22° C | 82% | 1009.5 hPa | 0 mm | - | 0 W/m² | - |
| 1778145699 | 2.22° C | 83% | 1009.4 hPa | 0 mm | - | 0 W/m² | - |
| 1778145396 | 2.78° C | 83% | 1009.4 hPa | 0 mm | - | 0 W/m² | - |
| 1778145092 | 2.78° C | 83% | 1009.5 hPa | 0 mm | - | 0 W/m² | - |
| 1778144788 | 2.78° C | 83% | 1009.4 hPa | 0 mm | - | 0 W/m² | - |
| 1778144486 | 2.78° C | 83% | 1009.4 hPa | 0 mm | - | 0 W/m² | - |
| 1778144182 | 2.78° C | 83% | 1009.4 hPa | 0 mm | - | 0 W/m² | - |
| 1778143879 | 2.78° C | 83% | 1009.3 hPa | 0 mm | - | 0 W/m² | - |
| 1778143576 | 2.78° C | 83% | 1009.3 hPa | 0 mm | - | 0 W/m² | - |
| 1778143273 | 2.78° C | 82% | 1008.9 hPa | 0 mm | - | 0 W/m² | - |
| 1778142969 | 2.78° C | 83% | 1009 hPa | 0 mm | - | 0 W/m² | - |
* Rain latest hour (hover to see other rain measurements)
** Current wind speed in m/s (hover to see current wind gust speed)